This is the latest recevied weather packets stored in our database for station/object NN5DX-12. If no packets are shown the sender has not sent any weather packets the latest 1 day(s).
| Time | Temp. | Humidity | Pressure | Rain* | Wind** | Luminosity | Snow |
|---|---|---|---|---|---|---|---|
| 1777996516 | -1.11° C | 96% | 1010.1 hPa | 0 mm | 0.45 m/s, 135° | - | - |
| 1777996216 | -1.11° C | 96% | 1010.1 hPa | 0 mm | 0.45 m/s, 135° | - | - |
| 1777995616 | -1.11° C | 96% | 1010.1 hPa | 0 mm | 0.45 m/s, 158° | - | - |
| 1777995017 | -1.11° C | 96% | 1010 hPa | 0 mm | 0.45 m/s, 113° | - | - |
| 1777993516 | -1.11° C | 96% | 1010.5 hPa | 0 mm | 0.45 m/s, 90° | - | - |
| 1777992916 | -1.11° C | 96% | 1010.6 hPa | 0 mm | 0.45 m/s, 90° | - | - |
| 1777992616 | -1.11° C | 96% | 1010.7 hPa | 0 mm | 0.45 m/s, 90° | - | - |
| 1777990816 | -1.11° C | 96% | 1010 hPa | 0 mm | 0.45 m/s, 135° | - | - |
| 1777990516 | -1.11° C | 96% | 1010.5 hPa | 0 mm | 0.45 m/s, 135° | - | - |
| 1777989016 | -1.11° C | 96% | 1010.4 hPa | 0 mm | 0.45 m/s, 113° | - | - |
| 1777988716 | -1.11° C | 96% | 1010.4 hPa | 0 mm | 0.45 m/s, 113° | - | - |
| 1777988416 | -1.11° C | 96% | 1010.3 hPa | 0 mm | 0.45 m/s, 113° | - | - |
| 1777987516 | -1.11° C | 96% | 1010.2 hPa | 0 mm | 0.45 m/s, 113° | - | - |
| 1777986916 | -1.11° C | 96% | 1009.9 hPa | 0 mm | 0.45 m/s, 113° | - | - |
| 1777986316 | -1.11° C | 96% | 1009.8 hPa | 0.25 mm | 0.45 m/s, 90° | - | - |
| 1777986016 | -1.11° C | 96% | 1009.7 hPa | 0.25 mm | 0.45 m/s, 90° | - | - |
| 1777985716 | -1.11° C | 96% | 1009.7 hPa | 0.25 mm | 0.89 m/s, 90° | - | - |
| 1777985416 | -1.11° C | 96% | 1009.7 hPa | 0.25 mm | 0.45 m/s, 90° | - | - |
| 1777984816 | -0.56° C | 96% | 1010.1 hPa | 0.25 mm | 0.89 m/s, 113° | - | - |
| 1777984516 | -0.56° C | 96% | 1010 hPa | 0.25 mm | 0.45 m/s, 135° | - | - |
| 1777983915 | -0.56° C | 96% | 1009.8 hPa | 0.25 mm | 0.89 m/s, 113° | - | - |
| 1777983616 | -0.56° C | 95% | 1009.7 hPa | 0.25 mm | 0.89 m/s, 113° | - | - |
| 1777983316 | -0.56° C | 96% | 1009.8 hPa | 0.25 mm | 0.45 m/s, 113° | - | - |
| 1777983016 | 0° C | 96% | 1009.9 hPa | 0.25 mm | 0.45 m/s, 113° | - | - |
| 1777982716 | 0° C | 96% | 1009.9 hPa | 0 mm | 0.89 m/s, 113° | - | - |
* Rain latest hour (hover to see other rain measurements)
** Current wind speed in m/s (hover to see current wind gust speed)